Wind_Speed
12 12 13 14 14 15 15 15 16 16 15 16 16 15 15 15 15 14 14 14 13 12 11 10 10 9 9 8 8 8 9 10 11 14 15 16 18 20 20 21 22 22 23
12 13 13 14 14 15 15 15 16 16 16 15 15 15 15 15 15 15 14 14 13 13 12 11 10 9 9 9 8 8 9 10 11 12 14 16 18 19 19 21 22 22 24
13 13 14 15 15 15 15 16 16 16 16 16 15 15 15 15 15 15 14 14 13 13 13 12 11 10 9 9 8 8 9 10 11 12 14 15 17 19 19 20 21 22 23
14 15 15 15 16 16 16 16 16 16 17 16 16 16 16 16 16 15 15 14 14 13 13 13 12 11 11 10 9 9 9 10 11 12 14 15 16 18 19 20 20 21 22
15 16 16 17 17 17 17 17 17 17 17 17 17 17 17 17 16 16 16 15 15 14 14 13 12 12 12 11 11 10 10 10 11 12 14 15 16 17 18 19 20 21 22
17 17 17 18 19 19 19 19 19 19 19 19 19 19 18 18 18 18 17 17 16 16 15 14 13 13 13 12 12 11 11 11 11 12 14 15 15 17 17 18 19 20 21
20 20 21 20 21 21 21 21 21 21 21 21 20 20 20 20 20 20 19 18 18 17 17 16 15 15 14 14 14 13 12 12 12 13 13 14 15 16 17 18 19 19 20
22 23 23 23 23 23 23 24 24 23 23 23 23 22 22 22 22 22 21 21 20 19 19 18 17 17 16 16 15 14 14 14 14 14 14 15 15 16 16 17 19 20 21
24 25 25 25 25 26 26 26 26 26 26 25 25 25 25 24 24 24 24 24 23 22 21 21 20 19 19 18 17 16 16 16 16 15 16 16 17 17 17 18 19 20 21
28 28 27 28 28 28 29 29 29 29 29 29 28 27 27 27 27 26 26 25 25 24 24 23 22 21 21 21 20 19 19 18 18 18 18 18 18 19 19 19 20 21 21
31 31 31 31 32 32 32 32 32 32 32 32 32 31 30 30 30 29 28 27 27 26 26 25 24 23 23 23 22 22 21 21 22 21 20 20 20 20 21 21 22 22 22
34 35 35 35 35 35 35 35 34 35 35 34 34 34 34 33 32 31 31 30 30 29 28 28 27 26 26 26 26 25 25 24 24 24 24 23 23 22 23 23 23 23 23
38 38 38 38 38 38 38 38 37 37 37 37 37 37 36 35 34 34 34 34 33 33 32 31 30 29 28 28 29 28 28 27 27 27 26 26 26 25 25 25 25 25 25
41 41 41 41 41 41 41 41 41 41 41 40 40 39 39 38 38 38 37 37 36 35 35 34 33 32 31 31 31 31 31 30 29 29 29 28 28 28 28 27 27 27 27
44 44 44 44 44 44 44 44 44 44 44 44 43 43 42 42 41 41 40 39 38 38 38 37 37 36 35 34 34 33 33 33 32 31 31 31 31 31 30 30 29 29 29
47 47 47 47 46 47 47 47 47 47 47 47 46 46 45 44 43 43 42 42 41 41 40 39 39 38 38 37 37 36 36 35 35 34 34 34 33 33 33 33 32 31 31
50 50 50 49 49 49 50 49 49 49 49 49 49 48 47 47 46 45 45 45 44 44 43 42 41 40 40 39 39 38 38 37 37 36 36 36 35 35 35 35 34 33 33
52 52 52 52 51 51 51 51 51 51 50 50 50 50 49 49 49 48 47 47 46 46 45 44 43 41 41 41 41 40 40 39 38 37 37 37 37 37 37 36 35 34 34
52 52 52 53 52 52 52 53 53 52 52 51 50 50 50 50 50 49 49 48 48 48 47 47 45 44 42 42 41 41 41 41 39 38 38 37 38 38 38 38 37 36 35
53 53 53 54 53 53 54 54 53 53 53 52 52 51 51 50 49 49 49 49 49 48 47 47 46 45 44 43 42 42 42 42 41 39 38 38 38 38 39 39 38 38 37
54 54 54 54 54 55 55 55 55 55 54 53 52 52 52 51 50 50 49 49 48 48 48 47 46 46 45 44 43 43 43 43 42 41 39 38 39 39 39 39 38 38 38
55 55 56 56 56 56 56 56 56 56 55 54 53 52 51 51 50 49 49 48 48 48 47 47 46 46 46 45 44 43 43 43 42 42 41 40 39 39 39 39 38 38 38
56 57 56 56 56 56 56 55 55 55 54 53 53 52 51 50 49 48 48 48 48 47 47 47 46 46 46 46 45 44 44 44 43 42 42 42 41 40 39 39 38 38 38
56 56 56 55 55 54 54 53 53 52 51 51 50 49 49 48 47 47 47 47 47 47 47 47 47 46 46 46 45 44 44 43 43 43 43 42 42 41 40 39 38 38 38
54 54 54 54 53 52 51 50 50 49 49 48 47 46 46 47 46 46 46 46 47 47 47 46 47 46 45 44 45 45 44 43 43 43 42 42 41 41 40 39 39 38 38
53 53 52 52 51 51 49 48 48 47 46 45 45 44 44 45 45 45 45 45 45 46 46 45 44 44 44 43 43 44 43 42 42 42 40 40 40 40 40 40 38 37 37
Wind_Direction
313 314 315 316 318 319 321 323 326 329 332 335 337 339 341 341 340 340 340 341 339 336 332 327 322 316 306 297 286 274 264 255 249 243 239 236 234 232 232 232 231 232 234
314 314 314 314 315 317 318 320 322 324 326 329 332 334 335 336 336 336 336 336 335 333 330 326 321 317 309 303 293 279 270 260 252 247 241 238 235 235 236 235 235 236 236
315 316 316 315 315 315 316 318 319 321 323 324 326 329 329 329 331 332 333 334 331 328 326 324 322 315 308 304 298 287 276 265 255 249 246 243 239 236 238 238 239 241 241
314 314 314 314 314 314 314 314 315 317 319 320 322 324 324 324 323 323 325 327 327 325 323 321 318 313 308 303 297 289 281 273 261 254 251 247 244 239 239 240 241 244 244
312 312 311 311 311 311 311 310 310 311 312 314 316 317 319 319 319 318 318 318 320 319 319 318 315 309 303 299 295 288 282 276 267 259 253 249 245 241 240 241 242 244 245
308 309 308 308 308 308 307 307 308 307 307 308 309 310 312 313 313 313 313 312 312 312 312 312 310 306 302 297 294 286 280 273 269 265 258 252 249 245 243 244 243 244 245
304 305 306 306 306 305 305 305 304 304 304 303 303 304 305 307 307 307 307 307 307 307 306 305 303 300 298 294 292 284 277 272 269 266 260 254 251 248 245 245 246 247 248
301 301 301 301 302 302 301 301 301 301 300 299 298 298 299 300 301 301 301 301 301 302 301 300 297 294 292 289 288 283 278 274 269 266 262 258 253 250 248 249 249 248 250
300 300 298 298 298 299 299 298 297 297 296 296 295 294 294 295 295 295 295 296 296 296 296 295 292 289 286 284 283 279 276 274 270 266 263 261 257 254 253 252 252 252 253
298 299 297 297 297 297 297 296 295 294 293 293 292 292 292 292 292 292 292 291 291 291 290 289 287 285 282 280 278 277 274 272 270 268 265 264 262 259 256 256 256 256 256
296 296 295 295 295 295 295 294 294 292 291 290 290 290 289 289 289 289 288 287 287 287 287 286 285 282 280 278 276 274 272 271 270 269 267 265 263 261 259 257 258 258 259
295 294 293 293 293 293 293 292 292 291 290 289 288 287 288 287 286 285 284 284 284 283 283 282 282 281 278 275 273 272 271 270 269 269 267 265 263 261 259 258 258 259 260
293 293 292 292 292 292 291 291 290 290 289 288 287 286 285 284 283 282 282 281 281 280 279 278 277 277 276 274 272 270 269 268 267 266 266 265 264 261 260 259 259 260 261
292 292 291 290 290 290 290 290 290 289 288 287 287 285 283 281 280 279 279 279 278 277 276 275 274 273 272 272 270 268 266 266 267 266 265 265 264 263 262 262 261 262 263
290 290 290 290 289 289 288 288 288 288 288 287 286 285 283 281 279 278 278 277 277 275 274 273 272 271 271 270 269 267 265 264 264 264 264 264 263 263 263 263 262 261 263
289 289 289 289 289 288 288 287 287 287 286 286 285 283 282 281 279 277 276 276 276 274 273 272 271 270 269 268 267 266 264 262 262 262 263 263 262 262 262 262 263 262 262
290 290 289 288 288 288 288 287 286 286 285 285 284 282 281 279 278 277 276 275 274 273 271 270 269 269 268 266 265 264 262 260 260 261 261 262 261 261 261 261 261 262 262
290 290 289 289 288 287 287 287 287 286 285 284 282 281 279 277 276 275 274 273 273 271 270 269 268 267 266 266 264 263 261 258 259 259 259 261 261 260 260 260 260 260 261
291 290 290 289 288 288 287 287 287 287 286 284 282 280 278 277 275 273 272 272 272 270 269 268 267 265 264 264 263 262 260 258 258 259 258 259 259 260 259 259 259 259 260
291 290 290 290 289 288 287 287 286 286 285 284 282 280 278 276 275 273 272 271 270 270 269 267 265 264 262 261 261 260 258 256 257 257 256 257 258 258 259 259 259 259 259
291 290 290 289 289 288 288 287 286 285 284 283 282 281 279 277 274 272 271 270 269 268 268 266 264 263 261 260 260 259 257 255 256 256 255 255 256 257 257 257 258 258 258
290 290 290 290 290 289 289 288 287 286 284 283 282 281 280 277 274 272 271 269 267 267 267 265 264 262 261 258 258 257 256 254 254 255 254 255 255 256 257 256 256 257 258
291 291 291 291 290 290 289 289 288 286 285 283 282 280 279 276 273 272 270 268 266 265 264 262 261 261 259 258 257 256 254 253 253 254 253 253 254 255 255 256 257 256 257
292 291 291 291 291 291 290 290 288 287 285 283 281 280 278 276 273 271 270 268 266 265 263 260 259 259 259 258 256 253 251 251 252 252 252 252 253 254 254 254 255 256 255
292 292 291 291 291 291 291 291 289 288 285 283 281 280 279 276 274 272 271 268 266 264 263 261 259 258 257 257 255 251 249 250 250 250 251 252 252 253 253 253 254 255 255
293 293 292 292 291 290 290 290 289 287 285 282 280 281 279 277 275 273 271 269 267 264 263 261 259 257 256 255 253 250 248 247 247 248 249 250 251 252 252 253 254 254 253
Height
5839 5838 5837 5836 5834 5833 5831 5830 5828 5826 5824 5822 5819 5817 5815 5813 5810 5808 5806 5804 5802 5800 5798 5797 5795 5795 5794 5793 5793 5793 5794 5795 5796 5798 5800 5802 5804 5807 5810 5813 5816 5819 5822
5837 5835 5834 5833 5832 5830 5829 5827 5826 5824 5822 5820 5818 5816 5814 5811 5809 5807 5805 5803 5801 5799 5797 5796 5794 5793 5792 5792 5791 5791 5791 5792 5793 5795 5797 5799 5801 5803 5806 5809 5811 5814 5817
5834 5833 5832 5830 5829 5828 5826 5825 5823 5821 5820 5818 5816 5814 5812 5810 5808 5806 5804 5802 5800 5798 5796 5795 5793 5792 5791 5790 5789 5789 5789 5789 5790 5792 5793 5795 5797 5799 5801 5804 5806 5809 5812
5831 5830 5829 5827 5826 5825 5823 5821 5820 5818 5817 5815 5813 5811 5810 5808 5806 5804 5802 5800 5798 5796 5795 5793 5791 5790 5789 5788 5787 5787 5786 5787 5787 5788 5790 5791 5793 5795 5797 5799 5802 5804 5806
5828 5827 5826 5824 5823 5821 5820 5818 5817 5815 5813 5812 5810 5808 5807 5805 5803 5801 5799 5798 5796 5794 5793 5791 5789 5788 5787 5786 5785 5784 5784 5784 5784 5785 5786 5788 5789 5790 5792 5795 5797 5799 5801
5825 5823 5822 5820 5819 5817 5816 5814 5813 5811 5810 5808 5807 5805 5803 5802 5800 5798 5796 5794 5793 5791 5790 5788 5787 5785 5784 5783 5782 5781 5781 5781 5782 5782 5783 5784 5785 5786 5788 5790 5791 5793 5796
5820 5819 5818 5816 5814 5813 5811 5809 5808 5806 5805 5804 5802 5801 5799 5797 5796 5794 5792 5790 5789 5788 5786 5785 5783 5782 5781 5780 5779 5778 5778 5778 5778 5779 5779 5780 5781 5782 5783 5785 5786 5788 5790
5815 5814 5812 5811 5809 5807 5806 5804 5802 5801 5799 5798 5797 5795 5794 5792 5791 5789 5787 5786 5784 5783 5781 5780 5779 5778 5777 5776 5775 5774 5774 5774 5774 5774 5775 5776 5776 5777 5778 5780 5781 5783 5784
5809 5808 5806 5804 5803 5801 5799 5797 5796 5794 5793 5791 5790 5789 5787 5786 5784 5783 5781 5780 5778 5777 5776 5775 5774 5773 5772 5771 5770 5770 5770 5770 5770 5770 5770 5771 5771 5772 5773 5775 5776 5777 5778
5803 5801 5799 5797 5795 5794 5792 5790 5788 5786 5785 5784 5782 5781 5780 5778 5777 5775 5773 5772 5771 5770 5769 5768 5767 5766 5766 5765 5765 5765 5765 5765 5765 5765 5765 5766 5766 5767 5768 5769 5770 5771 5772
5795 5793 5791 5789 5787 5785 5783 5781 5779 5777 5776 5774 5773 5772 5771 5769 5768 5766 5765 5763 5763 5762 5761 5760 5759 5759 5758 5758 5758 5758 5758 5758 5758 5759 5759 5760 5760 5761 5762 5762 5763 5764 5765
5786 5784 5781 5779 5776 5774 5772 5770 5768 5767 5765 5764 5762 5761 5760 5759 5758 5756 5755 5754 5753 5753 5752 5752 5751 5750 5750 5749 5749 5750 5750 5750 5751 5751 5752 5753 5754 5754 5755 5756 5756 5757 5758
5775 5773 5770 5768 5765 5763 5761 5759 5757 5755 5754 5752 5751 5750 5749 5748 5747 5746 5745 5744 5743 5742 5742 5742 5741 5741 5741 5740 5740 5741 5741 5741 5742 5743 5744 5745 5746 5746 5747 5748 5748 5749 5750
5764 5761 5758 5756 5753 5751 5749 5747 5745 5743 5741 5740 5738 5737 5736 5735 5734 5733 5732 5731 5731 5730 5730 5730 5730 5730 5730 5730 5730 5731 5731 5732 5733 5734 5735 5736 5736 5737 5738 5739 5740 5741 5742
5751 5748 5746 5743 5741 5738 5736 5734 5731 5730 5727 5726 5724 5722 5721 5721 5720 5719 5718 5718 5717 5717 5717 5717 5718 5718 5718 5719 5719 5720 5720 5721 5722 5723 5724 5726 5727 5727 5729 5729 5730 5732 5733
5737 5735 5732 5729 5726 5724 5722 5720 5717 5715 5713 5710 5708 5707 5706 5705 5705 5704 5704 5703 5703 5702 5702 5703 5704 5704 5705 5706 5706 5707 5708 5709 5711 5712 5713 5714 5716 5717 5718 5719 5720 5721 5723
5722 5719 5716 5714 5711 5709 5706 5704 5702 5700 5697 5695 5692 5691 5689 5689 5688 5688 5687 5687 5687 5687 5687 5688 5689 5690 5691 5691 5692 5693 5695 5696 5698 5699 5700 5702 5704 5705 5706 5707 5709 5710 5711
5706 5703 5700 5697 5695 5692 5689 5687 5684 5682 5681 5679 5676 5674 5673 5672 5671 5671 5670 5670 5671 5671 5671 5672 5673 5674 5675 5676 5678 5679 5680 5682 5683 5685 5687 5689 5691 5692 5694 5695 5697 5698 5699
5690 5687 5683 5680 5677 5674 5671 5669 5666 5664 5662 5660 5659 5657 5655 5654 5653 5653 5653 5653 5654 5654 5655 5656 5657 5658 5659 5661 5662 5663 5665 5667 5669 5671 5673 5675 5677 5679 5680 5682 5684 5686 5687
5674 5670 5666 5663 5660 5657 5654 5651 5648 5646 5643 5641 5640 5639 5637 5636 5636 5636 5635 5635 5636 5637 5637 5639 5640 5641 5643 5644 5646 5648 5650 5652 5654 5656 5659 5661 5663 5665 5667 5669 5671 5673 5674
5657 5653 5650 5646 5643 5639 5636 5633 5630 5627 5624 5623 5621 5619 5618 5617 5617 5617 5617 5618 5618 5619 5620 5621 5622 5624 5626 5628 5629 5631 5634 5637 5639 5641 5644 5646 5649 5651 5653 5655 5657 5659 5661
5639 5636 5632 5628 5624 5621 5617 5614 5611 5608 5605 5603 5602 5600 5599 5597 5597 5598 5598 5599 5600 5601 5602 5603 5605 5607 5609 5611 5614 5616 5618 5621 5624 5627 5630 5632 5635 5637 5640 5641 5643 5646 5648
5622 5618 5614 5610 5606 5603 5599 5595 5592 5589 5586 5584 5582 5581 5580 5579 5578 5579 5579 5580 5581 5582 5584 5585 5588 5590 5592 5595 5598 5600 5603 5607 5609 5612 5615 5618 5620 5623 5626 5628 5630 5632 5634
5604 5600 5596 5592 5588 5585 5581 5577 5574 5570 5568 5565 5564 5562 5561 5560 5560 5561 5561 5562 5562 5564 5565 5567 5570 5573 5576 5578 5581 5584 5588 5591 5594 5597 5600 5603 5606 5609 5612 5614 5617 5619 5621
5587 5582 5578 5575 5571 5567 5564 5560 5557 5554 5551 5548 5546 5545 5544 5543 5543 5543 5543 5544 5545 5546 5548 5550 5553 5556 5559 5562 5565 5568 5572 5575 5579 5582 5585 5588 5591 5594 5597 5600 5603 5606 5607
5570 5566 5562 5558 5554 5550 5547 5543 5540 5537 5534 5532 5530 5529 5527 5526 5526 5526 5526 5527 5528 5529 5532 5534 5536 5539 5543 5546 5549 5553 5556 5560 5564 5567 5571 5574 5578 5581 5584 5587 5590 5592 5594